Content
SEND FEEDBACK

Daily
Averages
Monthly
Summary
France

ROUEN, FRANCE


Home > Europe > France
Elevation: 515 feet     Latitude: 49 23N     Longitude: 001 11E

WEATHER
 
SELECT A DAY
Number of Records: 173,620;   Date Range: 7/1/96 - 9/15/14
 
SHARE

PRINT THIS DATA

[ ← Previous Day ]
WEATHER ALMANAC - JANUARY 17, 2013
[ Next Day → ]
[ °C ]   °F
Weather ElementAverageHighLow
Temperature28.8 °F37.4 °F (3:30 pm)23 °F (10:30 pm)
Dewpoint21.2 °F26.6 °F (1:30 am)17.6 °F (12:00 pm)
Humidity73.5 %93 % (3:00 am)37 % (1:00 pm)
Barometer30.03 in30.11 in (1:00 pm)29.98 in (12:30 am)
Wind Speed3.3 mph6.9 mph (8:30 pm)
Weather ElementAverage
Visibility5.2 mi
Wind DirectionENE (73.5 °)

Weather ElementTotal
Precipitation---
Heating Degree Days34.8 (Base 65)
Averaged from 51 records on January 17, 2013
WEATHER CONDITIONS BREAKOUT
WIND DIRECTION BREAKOUT
WEATHER BY HOUR - JANUARY 17, 2013
[ °C ]   °F
Local TimeTemperatureDewpointHumidityBarometerVisibilityWind DirectionWind SpeedGust SpeedPrecipitationEventsConditions
12:30 AM30.2 °F24.8 °F80 %29.98 in5.0 miNNE (30°)5.8 mphOvercast
1:00 AM31.0 °F26.0 °F73 %30.01 in5.0 miNNE (20°)4.6 mphClear
1:00 AM30.2 °F24.8 °F80 %29.98 in5.0 miNorth (10°)4.6 mph
1:30 AM30.2 °F26.6 °F86 %29.98 in5.0 miNorth (10°)3.5 mph
2:00 AM30.2 °F26.6 °F86 %29.98 in5.0 miNNE (30°)3.5 mph
2:30 AM30.2 °F26.6 °F86 %29.98 in4.3 miNE (50°)3.5 mph
3:00 AM28.4 °F26.6 °F93 %30.01 in4.3 miENE (70°)3.5 mph
3:30 AM28.4 °F24.8 °F86 %30.01 in4.3 miEast (90°)3.5 mph
4:00 AM28.4 °F24.8 °F86 %30.01 in4.3 miCalm
4:30 AM28.4 °F24.8 °F86 %30.01 in4.3 miVariable2.3 mph
5:00 AM28.4 °F24.8 °F86 %30.01 in4.3 miENE (60°)3.5 mph
5:30 AM28.4 °F23.0 °F80 %30.01 in5.6 miNE (50°)3.5 mph
6:00 AM28.4 °F23.0 °F80 %30.04 in5.6 miENE (70°)3.5 mph
6:30 AM26.6 °F21.2 °F80 %30.04 in5.0 miEast (80°)3.5 mph
7:00 AM25.0 °F20.0 °F75 %30.08 in5.0 miEast (80°)3.5 mphMostly Cloudy
7:00 AM24.8 °F21.2 °F86 %30.04 in4.3 miEast (80°)3.5 mph
7:30 AM24.8 °F19.4 °F80 %30.04 in4.3 miEast (80°)3.5 mph
8:00 AM24.8 °F21.2 °F86 %30.04 in4.3 miCalm
8:30 AM24.8 °F21.2 °F86 %30.04 in4.3 miCalm
9:00 AM26.6 °F23.0 °F86 %30.06 in3.7 miEast (100°)2.3 mph
9:30 AM26.6 °F23.0 °F86 %30.06 in3.1 miCalmMist
10:00 AM26.6 °F23.0 °F86 %30.06 in3.7 miCalm
10:30 AM30.2 °F23.0 °F75 %30.06 in3.7 miCalm
11:00 AM32.0 °F19.4 °F60 %30.06 in5.6 miCalm
11:30 AM33.8 °F19.4 °F56 %30.06 in6.2 miCalm
12:00 PM32.0 °F17.6 °F55 %30.06 in6.2 miESE (110°)5.8 mph
12:30 PM32.0 °F21.2 °F64 %30.06 in6.2 miESE (120°)5.8 mph
1:00 PM34.0 °F18.0 °F37 %30.11 in9.0 miSE (130°)1.2 mphScattered Clouds
1:00 PM33.8 °F17.6 °F52 %30.06 in6.2 miVariable1.2 mph
1:30 PM35.6 °F17.6 °F48 %30.06 in6.2 miVariable1.2 mph
2:00 PM35.6 °F17.6 °F48 %30.06 in6.2 miWest (270°)3.5 mph
2:30 PM35.6 °F19.4 °F52 %30.04 in6.2 miVariable2.3 mph
3:00 PM35.6 °F19.4 °F52 %30.04 in6.2 miVariable2.3 mph
3:30 PM37.4 °F19.4 °F48 %30.04 in6.2 miCalm
4:00 PM33.8 °F19.4 °F56 %30.04 in6.2 miEast (80°)2.3 mph
4:30 PM33.8 °F21.2 °F60 %30.04 in6.2 miSE (130°)2.3 mph
5:00 PM32.0 °F21.2 °F64 %30.04 in6.2 miSE (130°)3.5 mph
5:30 PM28.4 °F19.4 °F69 %30.04 in6.2 miSSE (150°)2.3 mph
6:00 PM28.4 °F19.4 °F69 %30.04 in6.2 miSE (130°)3.5 mph
6:30 PM26.6 °F19.4 °F74 %30.04 in6.2 miSSE (160°)3.5 mph
7:00 PM26.0 °F19.0 °F67 %30.07 in7.0 miESE (120°)5.8 mphClear
7:00 PM24.8 °F19.4 °F80 %30.04 in6.2 miESE (120°)5.8 mph
7:30 PM24.8 °F19.4 °F80 %30.01 in5.0 miSE (130°)4.6 mph
8:00 PM24.8 °F19.4 °F80 %30.01 in5.6 miSE (130°)5.8 mph
8:30 PM24.8 °F19.4 °F80 %30.01 in3.7 miESE (120°)6.9 mph
9:00 PM24.8 °F19.4 °F80 %30.01 in5.0 miESE (120°)6.9 mph
9:30 PM24.8 °F19.4 °F80 %30.01 in5.0 miSSE (160°)4.6 mph
10:00 PM24.8 °F19.4 °F80 %30.01 in4.3 miSSE (150°)5.8 mph
10:30 PM23.0 °F17.6 °F80 %29.98 in4.3 miSE (140°)6.9 mph
11:00 PM23.0 °F17.6 °F80 %29.98 in4.3 miESE (120°)5.8 mph
11:30 PM23.0 °F19.4 °F86 %29.98 in3.7 miESE (120°)5.8 mph
Hourly data recorded from LFOP, located miles away from Rouen, France







STORIES FROM OUR PARTNERS